Location: Slanting_Bridge
(35.6330°N, 80.9830°W)
Time: 08:43:34
(UTC-05:00)

Amateur Radio Satellites - All Passes

Search period start: 24 November 2014 08:13
Search period end: 25 November 2014 08:13
Location: Slanting_Bridge, 35.6330°N, 80.9830°W

Satellite Date Start Highest point End Downlink Frequencies (MHz)
Time Altitude Azimuth
CUTE-I 24 Nov 08:15:40 08:18:33 15° 297° (WNW) 08:21:25 437.470
CUTE 1.7 & AOD 2 24 Nov 08:19:31 08:21:46 14° 93° (E) 08:24:01 437.475
GONETS M04 24 Nov 08:30:52 08:39:32 67° 92° (E) 08:48:16
GOMX 1 24 Nov 08:45:12 08:48:05 18° 95° (E) 08:51:01 467.674
SEEDS 24 Nov 08:53:53 08:57:41 31° 97° (E) 09:01:28 437.485
BRITE-PL 24 Nov 09:02:35 09:06:31 42° 99° (E) 09:10:30 437.365/2234.400
HO-68 24 Nov 09:02:38 09:09:38 54° 101° (ESE) 09:16:35 435.675
CINEMA 3 24 Nov 09:04:37 09:06:39 13° 93° (E) 09:08:43 145.822/145.860
DX 1 24 Nov 09:09:58 09:12:23 15° 94° (E) 09:14:48 434.975-435.025
TIGRISAT 24 Nov 09:12:08 09:13:59 13° 66° (ENE) 09:15:50 435.000
AAUSAT CUBESAT 2 24 Nov 09:14:43 09:18:43 40° 98° (E) 09:22:42 437.432
CANX-2 24 Nov 09:18:39 09:22:57 82° 102° (ESE) 09:27:15 2200.000
UNISAT 6 24 Nov 09:23:31 09:26:22 18° 68° (ENE) 09:29:14 437.425
NANOSAT C BR1 24 Nov 09:26:31 09:28:29 13° 66° (ENE) 09:30:26 145.865
COMPASS 1 24 Nov 09:28:24 09:32:39 69° 101° (E) 09:36:52 437.405
DELFI C3 24 Nov 09:30:36 09:34:00 24° 96° (E) 09:37:23 145.870
QB50P1 24 Nov 09:35:18 09:38:00 17° 68° (ENE) 09:40:42 145.935-145.965
ZACube-1 24 Nov 09:36:35 09:38:49 14° 93° (E) 09:41:05 437.345
DOVE 4 24 Nov 09:49:14 09:53:25 81° 102° (ESE) 09:57:43 437.250
ANTELSAT 24 Nov 09:50:48 09:54:43 36° 72° (ENE) 09:58:38 437.575/2403.000
CUTE 1.7 & AOD 2 24 Nov 09:53:49 09:57:51 41° 287° (WNW) 10:01:53 437.475
BUGSAT 1 24 Nov 09:55:39 09:59:03 24° 70° (ENE) 10:02:26 437.445
AISAT 24 Nov 09:55:45 09:58:15 15° 93° (E) 10:00:44 437.250
POPSAT HIP 1 24 Nov 09:58:38 10:02:22 30° 71° (ENE) 10:06:07 437.405
FUNcube-1 24 Nov 10:10:46 10:14:41 35° 98° (E) 10:18:38 145.935
UKube-1 24 Nov 10:10:54 10:15:15 78° 103° (ESE) 10:19:34 .
GOMX 1 24 Nov 10:22:40 10:26:15 29° 288° (WNW) 10:29:54 467.674
Oscar 11 24 Nov 10:23:47 10:28:04 62° 285° (WNW) 10:32:21 145.826/435.025
CUBEBUG 2 24 Nov 10:27:12 10:31:27 82° 102° (ESE) 10:35:48 437.445
SEEDS 24 Nov 10:30:16 10:33:17 19° 291° (WNW) 10:36:18 437.485
GONETS M04 24 Nov 10:30:20 10:37:00 24° 291° (WNW) 10:43:44
POLYITAN 1 24 Nov 10:30:21 10:34:37 76° 76° (ENE) 10:38:53 437.675
UWE-3 24 Nov 10:31:36 10:35:51 79° 102° (ESE) 10:40:11 435.000/436.395/437.385
QB50P2 24 Nov 10:33:11 10:37:27 83° 77° (ENE) 10:41:43 145.880/145.840
CINEMA 3 24 Nov 10:40:03 10:44:01 42° 286° (WNW) 10:48:06 145.822/145.860
DUCHIFAT 1 24 Nov 10:40:32 10:44:48 82° 258° (WSW) 10:49:05 145.980
BRITE-PL 24 Nov 10:42:50 10:44:41 13° 293° (WNW) 10:46:32 437.365/2234.400
DX 1 24 Nov 10:44:43 10:48:47 40° 288° (WNW) 10:52:49 434.975-435.025
TIGRISAT 24 Nov 10:46:11 10:50:19 47° 260° (W) 10:54:26 435.000
HO-68 24 Nov 10:51:10 10:56:53 27° 298° (WNW) 11:02:35 435.675
AAUSAT CUBESAT 2 24 Nov 10:51:41 10:54:02 15° 293° (WNW) 10:56:23 437.432
ESTCUBE 1 24 Nov 10:57:39 11:01:32 27° 96° (E) 11:05:23 437.505/2401.250
UNISAT 6 24 Nov 10:59:03 11:02:55 33° 262° (W) 11:06:47 437.425
NANOSAT C BR1 24 Nov 10:59:50 11:03:56 47° 260° (W) 11:08:03 145.865
VELOX 1 24 Nov 11:05:37 11:10:03 83° 283° (WNW) 11:14:27 145.980
DELFI C3 24 Nov 11:05:57 11:09:10 22° 290° (WNW) 11:12:23 145.870
HUMSAT D 24 Nov 11:09:03 11:13:13 74° 284° (WNW) 11:17:24 437.325/437.525
QB50P1 24 Nov 11:09:40 11:13:36 36° 262° (W) 11:17:32 145.935-145.965
50 SAT 24 Nov 11:10:57 11:15:01 84° 283° (WNW) 11:19:06 437.505
ZACube-1 24 Nov 11:11:22 11:15:20 40° 287° (WNW) 11:19:21 437.345
ANTELSAT 24 Nov 11:29:06 11:31:39 15° 266° (W) 11:34:11 437.575/2403.000
AISAT 24 Nov 11:30:54 11:35:03 41° 288° (WNW) 11:39:10 437.250
BUGSAT 1 24 Nov 11:30:55 11:34:25 25° 264° (W) 11:37:56 437.445
POPSAT HIP 1 24 Nov 11:35:16 11:38:17 19° 265° (W) 11:41:18 437.405
TISAT 1 24 Nov 11:43:38 11:46:44 20° 95° (E) 11:49:48 437.305
SPROUT 24 Nov 11:47:25 11:50:32 19° 95° (E) 11:53:37 437.525
FUNcube-1 24 Nov 11:48:06 11:50:45 16° 292° (WNW) 11:53:26 145.935
CUBEBUG 1 24 Nov 11:50:49 11:55:11 73° 284° (WNW) 11:59:29 437.445
SO-50 24 Nov 11:59:08 12:01:18 13° 44° (NE) 12:03:28 436.795
Oscar 19 24 Nov 12:18:00 12:22:06 25° 68° (ENE) 12:26:13 437.125/150
ESTCUBE 1 24 Nov 12:34:38 12:38:15 24° 291° (WNW) 12:41:51 437.505/2401.250
YUBILEINY 24 Nov 12:56:02 13:02:53 25° 70° (ENE) 13:09:39 435.215
ITAMSAT 1 24 Nov 13:06:32 13:10:59 29° 69° (ENE) 13:15:25 435.822/435.867
ITUPSAT 1 24 Nov 13:14:09 13:18:19 29° 97° (E) 13:22:27 437.325
TISAT 1 24 Nov 13:18:57 13:22:33 28° 289° (WNW) 13:26:07 437.305
SPROUT 24 Nov 13:22:55 13:26:37 29° 289° (WNW) 13:30:18 437.525
SWISSCUBE 24 Nov 13:25:32 13:30:06 43° 99° (E) 13:34:38 437.505
Gurwin Techsat 1B 24 Nov 13:28:08 13:32:28 26° 68° (ENE) 13:36:49 435.225
AUBIESAT-1 24 Nov 13:28:16 13:33:06 54° 104° (ESE) 13:37:46 437.475
M-CUBED/EXP-1 PRIME 24 Nov 13:32:07 13:37:03 66° 106° (ESE) 13:41:50 437.505
SO-50 24 Nov 13:37:35 13:42:29 87° 241° (WSW) 13:47:23 436.795
AO-7 24 Nov 13:38:46 13:41:42 12° 50° (NE) 13:44:38 29.400- 29.500
VERMONT LUNAR 24 Nov 13:49:37 13:51:43 15° 142° (SE) 13:53:50 437.305
Oscar 19 24 Nov 13:56:41 14:01:15 33° 263° (W) 14:05:51 437.125/150
BEESAT 24 Nov 13:56:51 14:01:40 88° 103° (ESE) 14:06:27 436.000
CUSAT 1 24 Nov 13:58:05 14:00:23 22° 281° (W) 14:02:31 437.405
DANDE 24 Nov 14:16:27 14:18:22 16° 282° (WNW) 14:20:09 436.750
STARS 24 Nov 14:16:43 14:19:38 17° 94° (E) 14:22:32 437.465
MaSat-1 24 Nov 14:41:49 14:43:21 13° 108° (ESE) 14:44:49 437.345
ITAMSAT 1 24 Nov 14:45:50 14:50:21 30° 263° (W) 14:54:53 435.822/435.867
YUBILEINY 24 Nov 14:51:40 15:00:12 62° 269° (W) 15:08:41 435.215
ITUPSAT 1 24 Nov 14:52:09 14:56:04 25° 291° (WNW) 14:59:57 437.325
KKS-1 24 Nov 14:52:22 14:56:48 71° 102° (ESE) 15:01:13 437.445
JAS-2 24 Nov 14:57:58 15:00:25 12° 55° (NE) 15:02:52 435.910
HORYU 2 24 Nov 15:03:48 15:08:12 75° 258° (WSW) 15:12:39 437.375
SWISSCUBE 24 Nov 15:04:27 15:07:36 18° 294° (WNW) 15:10:44 437.505
AUBIESAT-1 24 Nov 15:04:31 15:07:35 17° 299° (WNW) 15:10:37 437.475
Gurwin Techsat 1B 24 Nov 15:07:29 15:12:14 34° 263° (W) 15:17:02 435.225
PHONESAT 2.4 24 Nov 15:08:03 15:11:33 41° 150° (SSE) 15:15:04 2401.200-2431.200
M-CUBED/EXP-1 PRIME 24 Nov 15:08:54 15:11:29 14° 300° (WNW) 15:14:02 437.505
RS-15 24 Nov 15:14:35 15:23:52 33° 105° (ESE) 15:33:02 29.354- 29.394
AO-7 24 Nov 15:24:43 15:32:52 65° 69° (ENE) 15:41:03 29.400- 29.500
VERMONT LUNAR 24 Nov 15:26:12 15:29:49 78° 156° (SSE) 15:33:27 437.305
STARS 24 Nov 15:52:12 15:56:11 35° 288° (WNW) 16:00:10 437.465
MaSat-1 24 Nov 16:15:27 16:17:47 20° 297° (WNW) 16:19:57 437.345
JAS-2 24 Nov 16:36:29 16:43:51 65° 72° (ENE) 16:51:38 435.910
O/OREOS (USA 219) 24 Nov 16:36:31 16:41:00 86° 70° (ENE) 16:45:29 437.305
PHONESAT 2.4 24 Nov 16:46:41 16:50:20 53° 346° (NNW) 16:53:59 2401.200-2431.200
VERMONT LUNAR 24 Nov 17:05:03 17:08:29 40° 352° (N) 17:11:56 437.305
Cubesat XI-IV 24 Nov 17:11:37 17:16:18 32° 69° (ENE) 17:20:59 437.490
AO-7 24 Nov 17:19:45 17:26:05 24° 265° (W) 17:32:29 29.400- 29.500
MOZHAYETS 4 24 Nov 17:21:17 17:25:58 77° 102° (ESE) 17:30:37
RS-15 24 Nov 17:24:39 17:35:27 62° 304° (NW) 17:46:18 29.354- 29.394
PRISM 24 Nov 17:34:20 17:37:00 16° 94° (E) 17:39:38 437.425
CUTE-I 24 Nov 17:52:41 17:58:02 78° 75° (ENE) 18:03:24 437.470
JAS-2 24 Nov 18:23:33 18:29:17 24° 269° (W) 18:35:17 435.910
PHONESAT 2.4 24 Nov 18:26:02 18:29:31 37° 3° (N) 18:33:01 2401.200-2431.200
VERMONT LUNAR 24 Nov 18:43:55 18:47:24 42° 10° (N) 18:50:53 437.305
GONETS M04 24 Nov 18:45:39 18:53:00 28° 71° (ENE) 19:00:14
STRAND 1 24 Nov 18:50:37 18:55:28 43° 99° (E) 19:00:17 437.568
Cubesat XI-IV 24 Nov 18:51:44 18:56:18 28° 263° (W) 19:00:54 437.490
CUBESAT XI-V 24 Nov 18:58:10 19:02:46 56° 100° (E) 19:07:18 437.345
PRISM 24 Nov 19:08:46 19:12:38 35° 288° (WNW) 19:16:27 437.425
HO-68 24 Nov 19:28:36 19:34:39 31° 64° (ENE) 19:40:42 435.675
CUTE-I 24 Nov 19:37:28 19:38:36 11° 269° (W) 19:39:44 437.470
RS-15 24 Nov 19:43:37 19:50:42 19° 332° (NNW) 19:57:52 29.354- 29.394
SEEDS 24 Nov 19:44:52 19:47:24 16° 68° (ENE) 19:49:56 437.485
GOMX 1 24 Nov 19:51:03 19:54:13 18° 69° (ENE) 19:57:15 467.674
PCSat 24 Nov 19:51:23 19:56:42 65° 113° (ESE) 20:02:05 145.827
AIST 1 24 Nov 20:02:20 20:06:43 79° 95° (E) 20:11:08
AAUSAT CUBESAT 2 24 Nov 20:04:17 20:07:16 20° 69° (ENE) 20:10:16 437.432
PHONESAT 2.4 24 Nov 20:04:54 20:08:38 74° 20° (NNE) 20:12:20 2401.200-2431.200
CANX-2 24 Nov 20:09:10 20:13:05 39° 73° (ENE) 20:17:01 2200.000
BRITE-PL 24 Nov 20:10:12 20:14:59 40° 73° (ENE) 20:19:26 437.365/2234.400
COMPASS 1 24 Nov 20:17:42 20:21:24 32° 72° (ENE) 20:25:07 437.405
DELFI C3 24 Nov 20:19:00 20:20:16 11° 66° (ENE) 20:21:32 145.870
VERMONT LUNAR 24 Nov 20:22:25 20:26:01 65° 206° (SSW) 20:29:36 437.305
STRAND 1 24 Nov 20:30:42 20:34:19 20° 294° (WNW) 20:37:55 437.568
BEESAT 3 24 Nov 20:35:41 20:39:45 88° 119° (ESE) 20:43:55 437.485
CUBESAT XI-V 24 Nov 20:37:35 20:39:40 13° 295° (WNW) 20:41:45 437.345
GONETS M04 24 Nov 20:41:39 20:50:11 56° 270° (W) 20:58:38
CUTE 1.7 & AOD 2 24 Nov 20:43:42 20:47:54 85° 258° (WSW) 20:52:09 437.475
BEESAT 2 24 Nov 20:49:53 20:53:58 71° 300° (WNW) 20:58:08 435.950
DOVE 4 24 Nov 20:52:03 20:56:42 59° 75° (ENE) 21:01:05 437.250
AISAT 24 Nov 20:53:28 20:54:18 10° 64° (ENE) 20:55:07 437.250
UKube-1 24 Nov 21:03:15 21:07:24 45° 73° (ENE) 21:11:33 .
FUNcube-1 24 Nov 21:05:02 21:08:09 20° 70° (ENE) 21:11:14 145.935
HO-68 24 Nov 21:15:11 21:22:01 47° 260° (W) 21:28:55 435.675
Oscar 11 24 Nov 21:15:33 21:19:48 69° 76° (ENE) 21:24:06 145.826/435.025
AIST 2 24 Nov 21:17:40 21:21:52 75° 300° (WNW) 21:26:09 435.215
SEEDS 24 Nov 21:19:04 21:22:55 36° 262° (W) 21:26:48 437.485
CUBEBUG 2 24 Nov 21:23:04 21:27:12 46° 74° (ENE) 21:31:14 437.445
UWE-3 24 Nov 21:26:25 21:30:28 43° 74° (ENE) 21:34:27 435.000/436.395/437.385
GOMX 1 24 Nov 21:27:25 21:32:04 41° 261° (W) 21:36:25 467.674
PCSat 24 Nov 21:37:02 21:40:34 17° 310° (NW) 21:44:08 145.827
DX 1 24 Nov 21:37:06 21:41:28 69° 258° (WSW) 21:45:51 434.975-435.025
CINEMA 3 24 Nov 21:38:54 21:43:21 67° 259° (W) 21:47:39 145.822/145.860
AAUSAT CUBESAT 2 24 Nov 21:39:10 21:42:45 28° 263° (W) 21:46:21 437.432
PHONESAT 2.4 24 Nov 21:44:10 21:47:12 24° 214° (SW) 21:50:14 2401.200-2431.200
CANX-2 24 Nov 21:46:55 21:49:10 14° 267° (W) 21:51:26 2200.000
BRITE-PL 24 Nov 21:49:56 21:53:31 19° 265° (W) 21:56:57 437.365/2234.400
DELFI C3 24 Nov 21:51:10 21:55:06 49° 260° (W) 21:59:04 145.870
COMPASS 1 24 Nov 21:54:28 21:57:11 17° 266° (W) 21:59:55 437.405
ESTCUBE 1 24 Nov 21:55:25 21:58:37 19° 68° (ENE) 22:01:49 437.505/2401.250
50 SAT 24 Nov 21:57:15 22:01:01 40° 73° (ENE) 22:04:48 437.505
HUMSAT D 24 Nov 21:58:37 22:02:39 52° 75° (ENE) 22:06:39 437.325/437.525
VELOX 1 24 Nov 22:00:32 22:04:57 61° 75° (ENE) 22:09:22 145.980
VERMONT LUNAR 24 Nov 22:02:38 22:04:02 12° 219° (SW) 22:05:26 437.305
ZACube-1 24 Nov 22:04:31 22:08:45 75° 258° (WSW) 22:12:57 437.345
RS-15 24 Nov 22:05:11 22:09:49 13° 11° (N) 22:14:29 29.354- 29.394
POLYITAN 1 24 Nov 22:20:43 22:23:17 16° 94° (E) 22:25:50 437.675
QB50P2 24 Nov 22:23:10 22:25:55 17° 94° (E) 22:28:39 145.880/145.840
AISAT 24 Nov 22:25:53 22:30:20 66° 258° (WSW) 22:34:49 437.250
DUCHIFAT 1 24 Nov 22:29:52 22:32:57 20° 95° (E) 22:36:01 145.980
DOVE 4 24 Nov 22:33:35 22:34:41 11° 267° (W) 22:35:47 437.250
TISAT 1 24 Nov 22:35:34 22:36:59 12° 65° (ENE) 22:38:23 437.305
TIGRISAT 24 Nov 22:40:42 22:44:54 41° 99° (E) 22:49:10 435.000
FUNcube-1 24 Nov 22:40:42 22:44:20 27° 263° (W) 22:47:56 145.935
SPROUT 24 Nov 22:40:58 22:42:24 12° 65° (ENE) 22:43:49 437.525
UKube-1 24 Nov 22:41:40 22:43:45 13° 267° (W) 22:45:51 .
CUBEBUG 1 24 Nov 22:44:03 22:48:27 64° 75° (ENE) 22:52:52 437.445
ISS 24 Nov 22:45:07 22:47:17 17° 129° (SE) 22:49:28 145.825
NANOSAT C BR1 24 Nov 22:48:26 22:52:16 33° 98° (E) 22:56:04 145.865
UNISAT 6 24 Nov 22:53:25 22:57:49 60° 101° (E) 23:02:19 437.425
CUSAT 1 24 Nov 22:56:41 22:57:58 11° 75° (ENE) 22:59:20 437.405
QB50P1 24 Nov 22:57:58 23:02:00 43° 99° (E) 23:06:01 145.935-145.965
CUBEBUG 2 24 Nov 23:02:30 23:04:06 12° 267° (W) 23:05:42 437.445
UWE-3 24 Nov 23:05:19 23:07:12 13° 267° (W) 23:09:03 435.000/436.395/437.385
DANDE 24 Nov 23:15:08 23:17:39 14° 77° (ENE) 23:20:30 436.750
BUGSAT 1 24 Nov 23:15:54 23:19:56 59° 101° (E) 23:23:54 437.445
ANTELSAT 24 Nov 23:22:01 23:26:26 63° 285° (WNW) 23:30:55 437.575/2403.000
POPSAT HIP 1 24 Nov 23:22:26 23:26:40 89° 103° (ESE) 23:30:53 437.405
JUGNU 24 Nov 23:27:15 23:28:25 11° 166° (SSE) 23:29:36 437.505
ESTCUBE 1 24 Nov 23:31:03 23:35:12 35° 262° (W) 23:39:23 437.505/2401.250
50 SAT 24 Nov 23:34:45 23:36:30 13° 267° (W) 23:38:15 437.505
VELOX 1 24 Nov 23:41:30 23:41:52 10° 269° (W) 23:42:15 145.980
POLYITAN 1 24 Nov 23:55:28 23:59:20 35° 288° (WNW) 00:03:11 437.675
QB50P2 24 Nov 23:58:06 00:01:54 33° 288° (WNW) 00:05:41 145.880/145.840
DUCHIFAT 1 25 Nov 00:05:12 00:08:48 28° 289° (WNW) 00:12:24 145.980
TISAT 1 25 Nov 00:08:08 00:12:19 54° 260° (W) 00:16:31 437.305
SPROUT 25 Nov 00:13:44 00:17:59 55° 260° (W) 00:22:14 437.525
AUBIESAT-1 25 Nov 00:15:24 00:19:06 40° 67° (ENE) 00:23:10 437.475
RS-15 25 Nov 00:17:18 00:27:14 34° 44° (NE) 00:37:27 29.354- 29.394
ITUPSAT 1 25 Nov 00:18:37 00:22:30 25° 69° (ENE) 00:26:25 437.325
TIGRISAT 25 Nov 00:18:38 00:21:19 16° 293° (WNW) 00:24:01 435.000
M-CUBED/EXP-1 PRIME 25 Nov 00:19:34 00:23:22 50° 69° (ENE) 00:27:34 437.505
ISS 25 Nov 00:20:36 00:23:42 38° 323° (NW) 00:26:48 145.825
NANOSAT C BR1 25 Nov 00:25:06 00:27:52 17° 292° (WNW) 00:30:38 145.865
SWISSCUBE 25 Nov 00:29:32 00:33:54 36° 71° (ENE) 00:38:17 437.505
UNISAT 6 25 Nov 00:32:41 00:34:07 11° 295° (WNW) 00:35:33 437.425
Oscar 19 25 Nov 00:35:02 00:35:54 10° 91° (E) 00:36:46 437.125/150
QB50P1 25 Nov 00:35:25 00:37:30 14° 294° (WNW) 00:39:35 145.935-145.965
CUSAT 1 25 Nov 00:36:14 00:40:59 74° 262° (W) 00:47:26 437.405
DANDE 25 Nov 00:56:26 01:00:58 55° 263° (W) 01:07:04 436.750
BEESAT 25 Nov 01:00:27 01:05:12 72° 75° (ENE) 01:10:00 436.000
STARS 25 Nov 01:13:01 01:14:31 12° 65° (ENE) 01:16:01 437.465
JUGNU 25 Nov 01:13:05 01:16:39 16° 176° (S) 01:20:14 437.505
SRMSAT 25 Nov 01:22:24 01:24:55 13° 168° (SSE) 01:27:26 437.500
ITAMSAT 1 25 Nov 01:24:09 01:26:12 12° 92° (E) 01:28:14 435.822/435.867
KKS-1 25 Nov 01:47:53 01:52:07 44° 73° (ENE) 01:56:21 437.445
Gurwin Techsat 1B 25 Nov 01:48:48 01:51:00 13° 91° (E) 01:53:11 435.225
AUBIESAT-1 25 Nov 01:52:22 01:54:23 14° 265° (W) 01:56:29 437.475
YUBILEINY 25 Nov 01:53:16 02:00:42 32° 85° (E) 02:08:06 435.215
ITUPSAT 1 25 Nov 01:56:04 02:00:14 30° 263° (W) 02:04:27 437.325
MaSat-1 25 Nov 01:56:33 01:58:21 19° 251° (WSW) 02:00:13 437.345
M-CUBED/EXP-1 PRIME 25 Nov 01:57:59 01:58:51 11° 266° (W) 01:59:44 437.505
SWISSCUBE 25 Nov 02:08:18 02:11:49 20° 265° (W) 02:15:22 437.505
Oscar 19 25 Nov 02:10:32 02:15:42 75° 285° (WNW) 02:20:51 437.125/150
RS-15 25 Nov 02:29:14 02:40:26 71° 246° (WSW) 02:52:10 29.354- 29.394
STARS 25 Nov 02:46:09 02:50:29 57° 259° (W) 02:54:50 437.465
HORYU 2 25 Nov 02:58:53 03:02:40 26° 97° (E) 03:06:26 437.375
ITAMSAT 1 25 Nov 03:00:57 03:06:05 65° 286° (WNW) 03:11:11 435.822/435.867
JUGNU 25 Nov 03:01:29 03:04:56 16° 186° (S) 03:08:24 437.505
SRMSAT 25 Nov 03:09:35 03:13:20 17° 178° (S) 03:17:05 437.500
Gurwin Techsat 1B 25 Nov 03:26:06 03:31:22 67° 286° (WNW) 03:36:37 435.225
KKS-1 25 Nov 03:26:36 03:28:57 14° 267° (W) 03:31:18 437.445
AO-7 25 Nov 03:30:41 03:37:13 25° 96° (E) 03:43:43 29.400- 29.500
YUBILEINY 25 Nov 03:48:38 03:57:04 49° 282° (WNW) 04:05:32 435.215
SO-50 25 Nov 03:49:34 03:53:58 62° 117° (ESE) 03:58:31 436.795
MOZHAYETS 4 25 Nov 04:20:26 04:24:51 50° 74° (ENE) 04:29:19
HORYU 2 25 Nov 04:35:35 04:39:13 25° 291° (WNW) 04:42:50 437.375
PCSat 25 Nov 04:42:41 04:47:20 28° 55° (NE) 04:51:57 145.827
RS-15 25 Nov 04:46:56 04:50:51 12° 263° (W) 04:54:49 29.354- 29.394
SRMSAT 25 Nov 04:58:37 05:01:46 15° 189° (S) 05:04:56 437.500
BEESAT 3 25 Nov 04:58:59 05:02:21 23° 52° (NE) 05:05:42 437.485
O/OREOS (USA 219) 25 Nov 05:08:58 05:11:14 14° 99° (E) 05:13:31 437.305
BEESAT 2 25 Nov 05:13:17 05:16:58 29° 54° (NE) 05:20:37 435.950
ISS 25 Nov 05:16:25 05:17:18 11° 23° (NNE) 05:18:10 145.825
AO-7 25 Nov 05:22:11 05:30:25 64° 292° (WNW) 05:38:37 29.400- 29.500
SO-50 25 Nov 05:32:19 05:34:57 15° 314° (NW) 05:37:37 436.795
Cubesat XI-IV 25 Nov 05:33:02 05:36:06 15° 93° (E) 05:39:09 437.490
JAS-2 25 Nov 05:35:34 05:42:37 73° 101° (ESE) 05:48:46 435.910
AIST 2 25 Nov 05:42:50 05:46:38 30° 54° (NE) 05:50:23 435.215
PRISM 25 Nov 05:56:17 06:00:27 70° 258° (WSW) 06:04:40 437.425
CUBESAT XI-V 25 Nov 05:58:48 06:03:10 39° 72° (ENE) 06:07:34 437.345
MOZHAYETS 4 25 Nov 06:00:14 06:02:20 13° 268° (W) 06:04:28
STRAND 1 25 Nov 06:03:34 06:08:28 46° 72° (ENE) 06:13:23 437.568
CUTE-I 25 Nov 06:13:12 06:18:10 39° 99° (E) 06:23:05 437.470
AIST 1 25 Nov 06:14:22 06:16:51 15° 73° (ENE) 06:19:18
PCSat 25 Nov 06:25:51 06:30:45 35° 251° (WSW) 06:35:37 145.827
BEESAT 3 25 Nov 06:36:57 06:40:34 28° 248° (WSW) 06:44:07 437.485
O/OREOS (USA 219) 25 Nov 06:45:54 06:50:11 44° 293° (WNW) 06:54:29 437.305
ISS 25 Nov 06:51:13 06:54:30 62° 40° (NE) 06:57:46 145.825
BEESAT 2 25 Nov 06:51:51 06:55:05 22° 249° (WSW) 06:58:18 435.950
Cubesat XI-IV 25 Nov 07:11:18 07:16:30 56° 287° (WNW) 07:21:39 437.490
AO-7 25 Nov 07:18:40 07:21:33 12° 310° (NW) 07:24:27 29.400- 29.500
AIST 2 25 Nov 07:21:45 07:25:06 22° 249° (WSW) 07:28:23 435.215
JAS-2 25 Nov 07:22:14 07:26:42 18° 301° (WNW) 07:30:53 435.910
CUBESAT XI-V 25 Nov 07:37:34 07:40:43 18° 267° (W) 07:43:54 437.345
GONETS M04 25 Nov 07:42:52 07:50:34 36° 86° (E) 07:58:18
STRAND 1 25 Nov 07:44:25 07:47:50 18° 266° (W) 07:51:16 437.568
AIST 1 25 Nov 07:50:37 07:54:40 38° 268° (W) 07:58:39
CUTE-I 25 Nov 07:53:51 07:57:57 23° 293° (WNW) 08:02:02 437.470
